Location: Newark
(48.1500°N, 2.9667°W)
Time: 11:23:39
(UTC+00:00)

Courier 1B - Pass Details

Date: 26 January 2020
Orbit: 962 x 1209 km, 28.3° (Epoch: 25 February)

Event Time Altitude Azimuth Distance (km) Brightness Sun altitude
Exits shadow 06:14:53 - 233° (SW) 3,477 10.0 -15.4°
Reaches altitude 10° 06:17:16 10° 218° (SW) 3,072 9.8 -15.1°
Maximum altitude 06:20:29 13° 193° (SSW) 2,864 9.9 -14.5°
Drops below altitude 10° 06:23:45 10° 168° (SSE) 3,118 10.5 -14.0°
Sets 06:28:31 0° 143° (SE) 4,099 11.6 -13.2°
